STARLINK-11200, 60310

Orbit data source: Space-Track

STARLINK-11200, 60310 is a payload satellite owned by SpaceX/Seattle (US) in LEO that was launched on Sun, 28 Jul 2024 UTC via an FALCON 9 launch vehicle from the Air Force Western Test Range (AFWTR). Payload-class satellites include a variety of spacecraft equipped with specific instruments for various scientific and technological missions. These include communications satellites like Starlink; space stations such as the ISS; scientific satellites like the Hubble; Earth observation satellites from companies like Planet Labs, Umbra, and HawkEye 360; GPS; miniature CubeSats for education and research; and military/defense satellites.

Loading next visibility...
Identifier
60310, 2024-133K
Orbit
LEO
Country
Flag of USUS
Related business
Manufacturer
SpaceX/Seattle
Mission
Operational Commercial Communications
Bus & Motor
STARLINK V2MD, Unknown motor
Mass
960 kg wet, ~910 kg dry
Launch date (UTC)
2024-07-28 (2 years ago)
Launch vehicle
FALCON 9
Launch site
Air Force Western Test Range (AFWTR)
Object type
Payload
Rocket body
Debris
Shape & HBR
Box + 2 Pan, 18.1 m
Radar Cross Section
36.964 m², Large (>1 m²)

Expand to show TLE details & history
Last TLE update: 1 day ago

TLE from 1 day ago
0 STARLINK-11200
1 60310U 24133K   26170.78703420  .00000794  00000-0  11413-4 0  9994
2 60310  53.1593   2.6229 0000959  61.8104 298.3010 15.69709995109779
Epoch: 2026-06-19T18:53Z
TLE epoch observation values (Epoch: 2026-06-19T18:53:19.754Z)
Latitude
-0.0001°
Longitude
171.27952°
Altitude
360.335 km
Speed
7.694 km/s
True Right ascension
00h 10m 29s
True Declination
0° 00' 00"
Sunlit
Object was in daylight at epoch
Visualization orbit readout
Latitude
Unknown
Longitude
Unknown
Altitude
Unknown
Speed
Unknown
Apparent Right ascension
Unknown
Apparent Declination
Unknown
Sunlit
N/A
Visualization observer readout
Local Sidereal Time
07:14:53
Azimuth
Unknown
Elevation
Unknown
Doppler factor
Unknown
Orbital elements
Apogee altitude
360.634 km
Perigee altitude
359.341 km
Semi-major axis
6,738.125 km
Eccentricity
0.0001
Inclination
53.1593°
RAAN
2.6229°
Arg. of periapsis
61.8104°
True anomaly
298.29132°
Mean anomaly
298.301°
Eccentric anomaly
298.29616°
Mean motion
3.92405 °/min
Orbital period
91.74 mins
BSTAR
0.000011413
Loading maneuver chart data...
Computing Atmospheric mass density...
Loading historical data...
Loading historical data...
Loading historical data...
Loading historical data...
Loading historical data...
Loading historical data...
Loading historical data...

Documentation

Showing up to 5 results
|